Terminal Aerodrome Forecast
Issued by NWS

Home | Current Version | Previous Version | Text Only | Print | Product List | Glossary On
Versions: 1 2 3 4 5 6 7 8 9 10 11 12 13 14 15 16 17 18 19 20 21 22 23
612
FTUS41 KAKQ 261126
TAFPHF
TAF
KPHF 261126Z 2612/2712 04010G17KT P6SM VCSH OVC005
     FM261400 04013G21KT P6SM VCSH OVC008
     FM261800 03015G23KT P6SM VCSH BKN015
     FM270000 03012G20KT P6SM BKN020
     FM270800 01014G22KT P6SM BKN015=

USA.gov is the U.S. government's official web portal to all federal, state and local government web resources and services.